[Iaude] MPEC G12: 2024 GC [a=1.62,e=0.36,i=9.0,H=24.8]
    mpec at cfa.harvard.edu 
    mpec at cfa.harvard.edu
       
    Tue Apr  2 21:52:20 EDT 2024
    
    
  
M.P.E.C. 2024-G12                                 Issued 2024 April 3, 01:50 UT
     The Minor Planet Electronic Circulars contain information on unusual
         minor planets, routine data on comets and natural satellites,
         and occasional editorial announcements.  They are published
    on behalf of Division F of the International Astronomical Union by the
          Minor Planet Center, Smithsonian Astrophysical Observatory,
                          Cambridge, MA 02138, U.S.A.
			  
             Prepared using the Tamkin Foundation Computer Network
                              MPC at CFA.HARVARD.EDU
            URL https://www.minorplanetcenter.net/    ISSN 1523-6714
                                    2024 GC                                     
Observations:
     K24G00C* C2024 04 01.37171113 38 34.388-00 36 09.88         20.66wXEG012F51
     K24G00C  C2024 04 01.38289613 38 33.216-00 37 32.52         20.64wXEG012F51
     K24G00C  C2024 04 01.39407413 38 32.033-00 38 55.30         20.57wXEG012F51
     K24G00C  C2024 04 01.40524013 38 30.841-00 40 17.88         20.49wXEG012F51
     K24G00C  C2024 04 01.52775213 38 17.355-00 55 19.94         20.40GVEG012F52
     K24G00C  C2024 04 01.52840213 38 17.286-00 55 24.57         20.56GVEG012F52
     K24G00C KB2024 04 02.03035513 37 42.68 -01 56 32.3          20.4 GXEG012958
     K24G00C KB2024 04 02.03741413 37 42.06 -01 57 22.4          19.9 GXEG012958
     K24G00C KB2024 04 02.04442613 37 41.28 -01 58 11.8          20.0 GXEG012958
     K24G00C KB2024 04 02.04576 13 37 42.60 -01 58 02.3          20.6 VqEG012Y66
     K24G00C KB2024 04 02.04664 13 37 42.51 -01 58 08.4          20.9 VqEG012Y66
     K24G00C KB2024 04 02.04748 13 37 42.44 -01 58 14.4          21.0 VqEG012Y66
     K24G00C KB2024 04 02.04831 13 37 42.34 -01 58 20.4          21.0 VqEG012Y66
     K24G00C |C2024 04 02.32347013 37 18.210-02 29 20.90         20.2 GVEG012807
     K24G00C |C2024 04 02.32619013 37 17.950-02 29 39.80         20.1 GVEG012807
     K24G00C |C2024 04 02.32897113 37 17.670-02 29 59.40         20.1 GVEG012807
     K24G00C IC2024 04 02.98171213 36 33.93 -03 47 01.8          20.7 GVEG012L01
     K24G00C IC2024 04 02.98844413 36 33.22 -03 47 47.4          20.6 GVEG012L01
     K24G00C KC2024 04 02.99125413 36 32.91 -03 48 07.2          20.8 GVEG012L01
Observer details:
807 Cerro Tololo Observatory, La Serena.  Observers T. Linder, R. Holmes.
    0.61-m f/6.8 Ritchey-Chretien + CCD.
958 Observatoire de Dax.  Observer P. Dupouy.  0.50-m f/4.5 Reflector + CMO.
F51 Pan-STARRS 1, Haleakala.  Observers J. Herman, T. Lowe, P. Minguez, A.
    Schultz, I. Smith.  Measurers K. Chambers, T. de Boer, J. Fairlamb, H.
    Gao, M. Huber, C.-C. Lin, E. Magnier, Y. Ramanjooloo, R. Wainscoat, R.
    Weryk.  1.8-m Ritchey-Chretien + CCD.
F52 Pan-STARRS 2, Haleakala.  Observers J. Herman, T. Lowe, P. Minguez, A.
    Schultz, I. Smith.  Measurers K. Chambers, T. de Boer, J. Fairlamb, H.
    Gao, M. Huber, C.-C. Lin, E. Magnier, Y. Ramanjooloo, R. Wainscoat, R.
    Weryk.  1.8-m Ritchey-Chretien + CCD.
L01 Visnjan Observatory, Tican.  Observer K. Korlevic.  1.0-m f/2.9 reflector
    + CCD.
Y66 Two-Meter Twin Telescope, TTT2, Teide.  Observer M. R. Alarcon.
    Measurer M. Serra-Ricart.  0.80-m f/4.38 reflector + CMO.
Orbital elements:
2024 GC                                                  Earth MOID = 0.0760 AU
Epoch 2024 Mar. 31.0 TT = JDT 2460400.5                 Veres                   
M  16.54982              (2000.0)            P               Q                  
n   0.47913651     Peri.  136.93587     -0.90015703     -0.43301336             
a   1.6174463      Node    17.57655     +0.34515581     -0.77506684             
e   0.3648337      Incl.    8.96973     +0.26567800     -0.46018564             
P   2.06           H   24.87          G   0.15           U   8                  
Residuals in seconds of arc
240401 F51  0.0   0.0     240402 958  0.8+  0.4-    240402 807  0.1+  0.1+
240401 F51  0.0   0.1+    240402 958  0.2-  0.3+    240402 807  0.1+  0.0
240401 F51  0.0   0.0     240402 Y66  0.0   0.3-    240402 L01  0.4+  0.2+
240401 F51  0.0   0.0     240402 Y66  0.0   0.1-    240402 L01  0.3-  0.3+
240401 F52  0.1-  0.1-    240402 Y66  0.3+  0.1-    240402 L01  0.8-  0.5-
240401 F52  0.0   0.1+    240402 Y66  0.2+  0.1-
240402 958  0.6-  0.8-    240402 807  0.1-  0.1-
Ephemeris:
2024 GC                  a,e,i = 1.62, 0.36, 9                   q = 1.0273
Date    TT    R. A. (2000) Decl.     Delta      r    Elong.  Phase     V
2024 03 04    14 16 36.9 +67 29 41   0.09808 1.0302   110.6    64.3    22.2
...
2024 03 19    13 56 21.5 +34 02 17   0.07746 1.0527   136.1    41.0    21.0
...
2024 03 27    13 45 23.6 +11 54 28   0.08237 1.0731   155.1    23.1    20.7
...
2024 04 02    13 37 44.7 -01 51 42   0.09444 1.0916   166.6    12.2    20.7
2024 04 03    13 36 32.2 -03 47 52   0.09706 1.0950   168.1    10.8    20.7
2024 04 04    13 35 21.2 -05 37 48   0.09984 1.0984   169.4     9.6    20.7
...
2024 04 10    13 28 51.8 -14 35 35   0.1194  1.1203   172.5     6.7    21.0
...
2024 04 18    13 22 25.7 -22 13 25   0.1519  1.1528   167.4    10.9    21.8
...
2024 05 03    13 18 23.4 -28 51 58   0.2286  1.2215   156.8    19.0    23.1
M. P. C. Staff               (C) Copyright 2024 MPC           M.P.E.C. 2024-G12
    
    
More information about the Iaude
mailing list